Starlink 31349

operational
NORAD ID: 59317 Int'l Des: 2024-056 Owner: SPXS Country: US Constellation: starlink
LEOCIRCULAR

Über Starlink 31349

Beschreibung wird geladen...

Live-Position

3D-Globus wird geladen...

Nächste Überflüge

Höhenverlauf

Altitude vs Time

uPlot chart will show altitude changes over time

Zweizeiliger Elementsatz

1 59317U 24056X 26063.51400809 .00001510 00000-0 64398-4 0 9997
2 59317 42.9995 259.8591 0001089 270.7296 89.3430 15.27579334110437
Epoch: 4. März 2026 • Age: 19 hours

Aktueller Status

Höhe 483.6 km
Geschwindigkeit 7.63 km/s
Subsatellitenpunkt -5.51°S, 171.28°E
Startdatum 24. März 2024
Alter 1.9 years
Typ internet

Technische Details

Klassifizierung Payload
Masse 730.00 kg
Trockenmasse 700.00 kg
Gesamtmasse 730.00 kg
Länge 0.30 m
Durchmesser 4.10 m
Spannweite 29.00 m
Form Box + pan
Hersteller SPXS
Bus-Typ Starlink V2M
Phasenstatus In Orbit
Besitzer/Staat SPXS/US

Große Konstellationen

Loading constellations...